Date String (YYYY-MM-DD hh:mm:ss) UTC,Instrument flags,Ambient pressure (hPa),Sample flow (lpm),Bypass flow (lpm),Sample temperature (°C),Ambient temperature (°C),ASC tube jacket temperature (°C),LED temperature (°C),Box temperature (°C),Sample RH (%),Span deviation,Mass concentration (μg/m³),Mass concentration (μg/m³),Mass concentration (μg/m³)
DateTimeUTC,F1_M11,P_M11,Q1_M11,Q2_M11,T1_M11,T2_M11,T3_M11,T4_M11,T5_M11,U1_M11,ZSPAN_M11,X0_M11,X2_M11,X1_M11
2023-01-24 16:00:00,,0825.4,5.00,0.00,21.6,20.1,00.0,30.5,23.2,12.9,-002.3,0021.95,0018.90,0018.62
2023-01-24 16:01:00,,0825.4,5.00,0.00,21.6,20.0,00.0,30.5,23.1,12.9,-002.3,0021.98,0018.89,0018.60
2023-01-24 16:02:00,,0825.5,5.00,0.00,21.5,20.0,00.0,30.5,23.1,12.9,-002.2,0021.92,0018.88,0018.58
2023-01-24 16:03:00,,0825.5,5.00,0.00,21.5,19.9,00.0,30.4,23.1,12.9,-002.2,0021.90,0018.86,0018.54
2023-01-24 16:04:00,,0825.4,5.01,0.00,21.5,20.1,00.0,30.4,23.1,12.9,-002.2,0021.87,0018.83,0018.52
2023-01-24 16:05:00,,0825.4,4.99,0.00,21.6,21.3,00.0,30.4,23.4,12.8,-002.2,0021.82,0018.79,0018.48
2023-01-24 16:06:00,,0825.5,5.00,0.00,21.7,22.5,00.0,30.4,23.7,12.7,-002.2,0021.79,0018.78,0018.46
2023-01-24 16:07:00,,0825.5,5.00,0.00,21.9,22.7,00.0,30.5,23.8,12.7,-002.4,0021.72,0018.75,0018.44
2023-01-24 16:08:00,,0825.5,4.99,0.00,21.9,21.9,00.0,30.5,23.7,12.6,-002.4,0021.64,0018.70,0018.39
2023-01-24 16:09:00,,0825.5,5.00,0.00,21.8,21.0,00.0,30.5,23.5,12.7,-002.3,0021.62,0018.66,0018.35
2023-01-24 16:10:00,,0825.4,4.99,0.00,21.7,20.3,00.0,30.5,23.3,12.6,-002.4,0021.62,0018.55,0018.23
2023-01-24 16:11:00,,0825.4,5.02,0.00,21.6,19.8,00.0,30.5,23.1,12.7,-002.4,0021.60,0018.44,0018.10
2023-01-24 16:12:00,,0825.4,4.98,0.00,21.6,19.4,00.0,30.5,22.9,12.7,-002.3,0021.47,0018.30,0017.99
2023-01-24 16:13:00,,0825.5,4.97,0.00,21.5,19.0,00.0,30.4,22.8,12.8,-002.4,0021.39,0018.19,0017.88
2023-01-24 16:14:00,,0825.5,5.00,0.00,21.4,18.7,00.0,30.4,22.7,12.9,-002.5,0021.37,0018.10,0017.79
2023-01-24 16:15:00,,0825.5,5.01,0.00,21.3,18.6,00.0,30.4,22.6,12.9,-002.4,0021.36,0018.03,0017.69
2023-01-24 16:16:00,,0825.5,5.00,0.00,21.3,20.0,00.0,30.3,22.8,12.9,-002.3,0021.26,0017.92,0017.59
2023-01-24 16:17:00,,0825.5,4.99,0.00,21.4,21.5,00.0,30.3,23.2,12.8,-002.3,0021.12,0017.79,0017.48
2023-01-24 16:18:00,,0825.5,5.01,0.00,21.6,22.0,00.0,30.3,23.4,12.6,-002.2,0021.01,0017.67,0017.36
2023-01-24 16:19:00,,0825.4,5.00,0.00,21.6,21.1,00.0,30.4,23.2,12.6,-002.3,0020.97,0017.56,0017.24
2023-01-24 16:20:00,,0825.5,5.01,0.00,21.5,20.3,00.0,30.4,23.0,12.7,-002.3,0020.92,0017.42,0017.09
2023-01-24 16:21:00,,0825.5,5.01,0.00,21.4,19.6,00.0,30.3,22.8,12.7,-002.4,0020.79,0017.32,0016.99
2023-01-24 16:22:00,,0825.5,5.03,0.00,21.3,19.1,00.0,30.3,22.6,12.8,-002.3,0020.69,0017.21,0016.87
2023-01-24 16:23:00,,0825.5,5.00,0.00,21.2,18.7,00.0,30.3,22.5,12.8,-002.2,0020.48,0017.10,0016.76
2023-01-24 16:24:00,,0825.6,4.99,0.00,21.1,18.5,00.0,30.2,22.4,12.8,-002.1,0020.36,0016.97,0016.61
2023-01-24 16:25:00,,0825.6,5.01,0.00,21.0,19.0,00.0,30.2,22.4,12.9,-001.9,0020.19,0016.87,0016.50
2023-01-24 16:26:00,,0825.7,5.01,0.00,21.1,20.4,00.0,30.1,22.9,12.9,-001.7,0020.25,0016.83,0016.45
2023-01-24 16:27:00,,0825.7,5.02,0.00,21.3,21.6,00.0,30.1,23.2,12.8,-001.7,0020.20,0016.79,0016.42
2023-01-24 16:28:00,,0826.0,4.99,0.00,21.4,22.1,00.0,30.2,23.3,12.7,-001.8,0020.05,0016.68,0016.32
2023-01-24 16:29:00,,0826.1,5.00,0.00,21.5,21.4,00.0,30.2,23.2,12.6,-001.9,0020.01,0016.62,0016.22
2023-01-24 16:30:00,,0825.7,5.01,0.00,21.4,20.7,00.0,30.2,23.1,12.5,-001.8,0019.87,0016.52,0016.15
2023-01-24 16:31:00,,0825.8,5.00,0.00,21.4,20.2,00.0,30.2,23.0,12.6,-001.9,0019.79,0016.44,0016.08
2023-01-24 16:32:00,,0825.8,5.00,0.00,21.3,19.8,00.0,30.2,22.8,12.5,-001.8,0019.66,0016.41,0016.06
2023-01-24 16:33:00,,0825.8,5.02,0.00,21.3,19.5,00.0,30.2,22.8,12.5,-001.9,0019.65,0016.37,0015.99
2023-01-24 16:34:00,,0825.8,5.00,0.00,21.3,19.4,00.0,30.2,22.7,12.5,-002.2,0019.56,0016.32,0015.96
2023-01-24 16:35:00,,0825.8,4.99,0.00,21.2,19.4,00.0,30.2,22.7,12.8,-002.4,0019.56,0016.29,0015.92
2023-01-24 16:36:00,,0825.8,5.00,0.00,21.2,19.4,00.0,30.1,22.8,12.8,-002.4,0019.60,0016.28,0015.93
2023-01-24 16:37:00,,0825.8,5.00,0.00,21.2,19.4,00.0,30.1,22.8,12.7,-002.5,0019.70,0016.28,0015.91
2023-01-24 16:38:00,,0825.9,5.00,0.00,21.2,20.3,00.0,30.1,22.9,12.6,-002.7,0019.71,0016.25,0015.90
2023-01-24 16:39:00,,0825.8,5.00,0.00,21.4,21.9,00.0,30.1,23.2,12.5,-002.7,0020.07,0016.26,0015.91
2023-01-24 16:40:00,,0825.9,4.99,0.00,21.5,22.4,00.0,30.2,23.4,12.4,-002.7,0020.14,0016.27,0015.92
2023-01-24 16:41:00,,0825.9,4.99,0.00,21.5,21.7,00.0,30.2,23.3,12.4,-002.9,0020.92,0016.33,0015.94
2023-01-24 16:42:00,,0825.9,5.00,0.00,21.5,20.9,00.0,30.2,23.2,12.4,-002.8,0020.97,0016.40,0015.98
2023-01-24 16:43:00,,0825.9,5.00,0.00,21.5,20.4,00.0,30.2,23.1,12.4,-002.9,0021.01,0016.42,0015.99
2023-01-24 16:44:00,,0825.9,4.99,0.00,21.5,20.0,00.0,30.2,22.9,12.4,-002.7,0020.90,0016.39,0016.01
2023-01-24 16:45:00,,0825.9,5.01,0.00,21.4,19.7,00.0,30.2,22.8,12.4,-002.6,0020.90,0016.38,0016.00
2023-01-24 16:46:00,,0826.0,5.02,0.00,21.4,19.5,00.0,30.2,22.8,12.5,-002.5,0021.11,0016.39,0016.01
2023-01-24 16:47:00,,0825.9,4.99,0.00,21.3,19.4,00.0,30.2,22.8,12.6,-002.3,0021.33,0016.43,0016.06
2023-01-24 16:48:00,,0825.9,4.99,0.00,21.3,19.3,00.0,30.2,22.8,12.6,-002.2,0021.59,0016.51,0016.10
2023-01-24 16:49:00,,0825.9,5.02,0.00,21.3,19.3,00.0,30.2,22.8,12.5,-002.1,0021.60,0016.56,0016.13
2023-01-24 16:50:00,,0826.0,5.01,0.00,21.3,20.6,00.0,30.2,23.0,12.5,-002.0,0021.37,0016.65,0016.18
2023-01-24 16:51:00,,0825.9,5.00,0.00,21.5,21.9,00.0,30.2,23.3,12.5,-001.9,0021.40,0016.68,0016.18
2023-01-24 16:52:00,,0825.9,5.02,0.00,21.6,22.1,00.0,30.2,23.5,12.3,-001.9,0020.82,0016.65,0016.13
2023-01-24 16:53:00,,0825.8,4.99,0.00,21.6,21.4,00.0,30.3,23.3,12.2,-002.0,0020.98,0016.61,0016.07
2023-01-24 16:54:00,,0826.0,5.00,0.00,21.6,20.8,00.0,30.3,23.2,12.1,-002.1,0021.30,0016.61,0016.02
2023-01-24 16:55:00,,0826.1,4.99,0.00,21.6,20.3,00.0,30.3,23.1,12.3,-002.0,0021.67,0016.66,0016.00
2023-01-24 16:56:00,,0826.0,4.99,0.00,21.5,19.9,00.0,30.3,23.0,12.3,-001.9,0021.89,0016.70,0015.97
2023-01-24 16:57:00,,0826.1,5.02,0.00,21.5,19.6,00.0,30.3,22.9,12.3,-002.0,0022.59,0016.71,0015.93
2023-01-24 16:58:00,,0825.9,4.99,0.00,21.4,19.4,00.0,30.3,22.8,12.5,-002.1,0022.76,0016.72,0015.88
2023-01-24 16:59:00,,0825.8,5.00,0.00,21.4,19.2,00.0,30.2,22.8,12.4,-002.3,0023.09,0016.65,0015.84
